FW8888 Weather Reports


Display with metric or nautical units.
time (UTC)temp
F
wind
direction
speed
MPH
gust
MPH
rain 1hr
in
rain 24hr
in
rain mn
in
humidity
%
barometer
mb
20220629100100 67 0 0.0 0.0 0.07 0.09 0.09 94 1024.2
20220629094602 67 0 0.0 1.0 0.09 0.09 0.09 93 1024.1
20220629093111 67 0 0.0 0.0 0.09 0.09 0.09 92 1024.2
20220629091606 68 236 0.0 1.0 0.02 0.02 0.02 91 1024.3
20220629090059 69 0 0.0 1.0 0.02 0.02 0.02 87 1023.8
20220629084609 70 0 0.0 0.0 0.00 0.00 0.00 83 1023.6
20220629083056 70 0 0.0 0.0 0.00 0.00 0.00 82 1023.6
20220629081551 70 0 0.0 0.0 0.00 0.00 0.00 80 1023.6
20220629080052 70 0 0.0 0.0 0.00 0.00 0.00 78 1023.8
20220629074605 71 0 0.0 0.0 0.00 0.00 0.00 75 1023.6
20220629073057 71 0 0.0 0.0 0.00 0.00 0.00 75 1023.8
20220629071553 71 0 0.0 0.0 0.00 0.00 0.00 75 1023.8
20220629070106 71 0 0.0 0.0 0.00 0.00 0.00 76 1023.8
20220629064555 71 0 0.0 0.0 0.00 0.00 0.00 76 1023.9
20220629063050 71 0 0.0 0.0 0.00 0.00 0.00 78 1023.9
20220629061554 71 0 0.0 0.0 0.00 0.00 0.00 75 1023.9
20220629060127 71 0 0.0 0.0 0.00 0.00 0.00 75 1023.9
20220629054557 71 0 0.0 0.0 0.00 0.00 0.00 73 1023.9
20220629053059 71 0 0.0 0.0 0.00 0.00 0.00 74 1023.9
20220629051555 71 0 0.0 0.0 0.00 0.00 0.00 74 1023.8
20220629050105 71 0 0.0 0.0 0.00 0.00 0.00 74 1023.8
20220629044555 71 0 0.0 0.0 0.00 0.00 0.00 75 1023.6
20220629043053 71 0 0.0 0.0 0.00 0.00 0.00 76 1023.7
20220629041607 71 0 0.0 0.0 0.00 0.00 0.00 78 1023.7
20220629040105 71 0 0.0 0.0 0.00 0.00 0.00 79 1023.6
20220629034602 71 0 0.0 0.0 0.00 0.00 0.00 79 1023.7
20220629033054 71 0 0.0 0.0 0.00 0.00 0.00 77 1023.8
20220629031558 71 0 0.0 0.0 0.00 0.00 0.00 75 1023.7
20220629030108 72 0 0.0 0.0 0.00 0.00 0.00 73 1023.5
20220629024606 72 0 0.0 0.0 0.00 0.00 0.00 73 1023.5
20220629023059 73 0 0.0 0.0 0.00 0.00 0.00 76 1023.6
20220629021604 73 0 0.0 0.0 0.00 0.00 0.00 76 1023.2
20220629020105 73 0 0.0 0.0 0.00 0.00 0.00 75 1023.2
20220629014600 73 0 0.0 0.0 0.00 0.00 0.00 76 1023.0
20220629013055 74 0 0.0 0.0 0.00 0.00 0.00 73 1022.8
20220629011601 74 0 0.0 0.0 0.00 0.00 0.00 74 1022.6
20220629010102 75 0 0.0 0.0 0.00 0.00 0.00 70 1022.6
20220629004555 76 0 0.0 0.0 0.00 0.00 0.00 70 1022.6
20220629003102 77 0 0.0 0.0 0.00 0.00 0.00 64 1022.4
20220629001550 78 0 0.0 0.0 0.00 0.00 0.00 61 1022.4
20220629000105 78 0 0.0 0.0 0.00 0.00 0.00 58 1022.5
20220628234606 79 0 0.0 1.0 0.00 0.00 0.00 55 1022.2
20220628233102 80 331 0.0 1.0 0.00 0.00 0.00 56 1022.2
20220628231554 80 0 0.0 0.0 0.00 0.00 0.00 54 1022.0
20220628230109 81 0 0.0 0.0 0.00 0.00 0.00 53 1022.0
20220628224607 81 320 0.0 0.0 0.00 0.00 0.00 54 1021.9
20220628223100 81 0 0.0 2.0 0.00 0.00 0.00 49 1021.9
20220628221558 81 0 0.0 1.0 0.00 0.00 0.00 50 1021.7
20220628220108 81 0 0.0 1.0 0.00 0.00 0.00 49 1021.8
20220628214553 81 89 0.0 1.0 0.00 0.00 0.00 49 1022.1
20220628213104 81 0 0.0 2.0 0.00 0.00 0.00 51 1022.2
20220628211600 81 0 0.0 2.0 0.00 0.00 0.00 49 1021.9
20220628210102 81 0 1.0 4.0 0.00 0.00 0.00 50 1022.1
20220628204601 81 316 0.0 2.0 0.00 0.00 0.00 47 1022.1
20220628203050 81 0 1.0 3.0 0.00 0.00 0.00 49 1022.2
20220628201558 81 255 0.0 2.0 0.00 0.00 0.00 47 1022.3
20220628200054 81 314 1.0 2.0 0.00 0.00 0.00 49 1022.5
20220628194556 81 309 0.0 3.0 0.00 0.47 0.00 51 1022.6
20220628193106 81 311 1.0 3.0 0.00 0.47 0.00 49 1022.9
20220628191555 80 300 0.0 3.0 0.00 0.47 0.00 48 1022.9
20220628190057 81 316 0.0 2.0 0.00 0.47 0.00 47 1022.9
20220628184600 81 0 0.0 2.0 0.00 0.47 0.00 49 1022.9
20220628183103 81 0 0.0 3.0 0.00 0.47 0.00 51 1023.3
20220628181558 80 239 0.0 3.0 0.00 0.47 0.00 50 1023.2
20220628180105 81 274 2.0 4.0 0.00 0.47 0.00 45 1023.4
20220628174610 80 0 0.0 1.0 0.00 0.47 0.00 50 1023.6
20220628173107 80 237 0.0 1.0 0.00 0.47 0.00 45 1023.8
20220628171602 80 0 0.0 2.0 0.00 0.47 0.00 48 1023.9
20220628170108 79 229 0.0 2.0 0.00 0.47 0.00 48 1023.9
20220628164605 79 309 0.0 5.0 0.00 0.47 0.00 51 1023.8
20220628163107 81 264 0.0 1.0 0.00 0.47 0.00 49 1023.6
20220628161608 81 302 0.0 2.0 0.00 0.47 0.00 47 1023.7
20220628160110 81 278 0.0 3.0 0.00 0.47 0.00 48 1023.7
20220628154610 80 0 0.0 3.0 0.00 0.47 0.00 52 1023.7
20220628153115 78 319 1.0 4.0 0.00 0.47 0.00 51 1023.7
20220628151617 79 314 1.0 4.0 0.00 0.47 0.00 53 1023.8
20220628150114 77 300 0.0 4.0 0.00 0.47 0.00 57 1023.6
20220628144608 76 302 0.0 3.0 0.00 0.47 0.00 56 1023.6
20220628143111 75 0 0.0 2.0 0.00 0.47 0.00 60 1023.9
20220628141609 74 0 0.0 1.0 0.00 0.47 0.00 62 1023.4
20220628140054 75 292 0.0 1.0 0.00 0.47 0.00 64 1023.3
20220628134609 75 0 0.0 1.0 0.00 0.47 0.00 64 1023.2
20220628133059 73 36 0.0 2.0 0.00 0.47 0.00 69 1022.9
20220628131555 72 0 0.0 3.0 0.00 0.47 0.00 73 1022.9
20220628130059 71 0 0.0 3.0 0.00 0.47 0.00 76 1022.7
20220628124555 68 0 0.0 2.0 0.00 0.47 0.00 80 1022.6
20220628123101 67 0 0.0 1.0 0.00 0.47 0.00 87 1022.5
20220628121558 67 0 0.0 4.0 0.00 0.47 0.00 89 1022.3
20220628120100 67 303 0.0 2.0 0.00 0.47 0.00 93 1022.2
20220628114600 67 0 0.0 1.0 0.00 0.47 0.00 96 1022.0
20220628113109 67 0 0.0 3.0 0.00 0.47 0.00 96 1021.8
20220628111603 68 0 0.0 2.0 0.00 0.47 0.00 97 1021.6
20220628110119 68 0 0.0 1.0 0.00 0.47 0.00 97 1021.5
20220628104554 69 222 0.0 1.0 0.00 0.47 0.00 98 1021.5
20220628103115 69 0 0.0 0.0 0.00 0.47 0.00 98 1021.2
20220628101558 69 0 0.0 1.0 0.00 0.47 0.00 98 1021.0